Regional Weather Roundup
Issued by NWS

Home | Current Version | Previous Version | Text Only | Print | Product List | Glossary On
Versions: 1 2 3 4 5 6 7 8 9 10 11 12 13 14 15 16 17 18 19 20 21 22 23 24 25 26 27 28 29 30 31 32 33 34 35 36 37 38 39 40 41 42 43 44 45 46 47 48 49 50
000
ASUS43 KTOP 231659
RWRKS

WEATHER ROUNDUP FOR KANSAS
NATIONAL WEATHER SERVICE GOODLAND KS
1100 AM CST SUN NOV 23 2014

NOTE:  "FAIR" INDICATES FEW OR NO CLOUDS BELOW 12,000 FEET WITH NO
SIGNIFICANT WEATHER AND/OR OBSTRUCTIONS TO VISIBILITY.

KSZ001>006-013>018-027>032-041>047-231800-
NORTHWEST KANSAS

CITY           SKY/WX    TMP DP  RH WIND       PRES   REMARKS
GOODLAND       CLOUDY    42  15  33 N29G37    29.71R
HAYS           CLOUDY    46  30  53 N40G47    29.61R
HILL CITY      CLOUDY    44  34  67 N15G26    29.65F
RUSSELL        CLOUDY    49  35  58 N35G48    29.55R
$$

KSZ061>065-074>080-084>089-231800-
SOUTHWEST KANSAS

CITY           SKY/WX    TMP DP  RH WIND       PRES   REMARKS
DODGE CITY     CLOUDY    47  30  51 N38G58    29.56R
ELKHART          N/A    N/A N/A N/A MISG        N/A
GARDEN CITY    LGT RAIN  43  30  60 N38G51    29.64R
GREAT BEND     CLOUDY    52  36  54 N37G46    29.54R
LIBERAL        PTSUNNY   48  28  46 N43G51    29.63R
$$

KSZ066>073-081>083-090>101-231800-
SOUTHEAST KANSAS

CITY           SKY/WX    TMP DP  RH WIND       PRES   REMARKS
CHANUTE        CLOUDY    60  54  80 S16       29.42F
COFFEYVILLE    CLOUDY    60  54  80 S15       29.41F
HUTCHINSON     CLOUDY    55  50  83 N7        29.46S
MEDICINE LODGE   N/A     55  49  80 N10       29.44R
NEWTON         CLOUDY    52  46  82 W6        29.48S
PARSONS        CLOUDY    60  55  83 S13G18    29.42F
WICHITA INTL   LGT RAIN  55  51  86 N5        29.43F
WICHITA JABRA  LGT RAIN  53  50  89 W6        29.44F
WINFIELD       CLOUDY    56  52  86 SW6       29.42F
$$

KSZ007>012-019>026-033>040-048>060-102>105-231800-
NORTHEAST KANSAS

CITY           SKY/WX    TMP DP  RH WIND       PRES   REMARKS
CONCORDIA      CLOUDY    48  39  71 N22G36    29.51S
EMPORIA        LGT RAIN  55  54  96 CALM      29.43F FOG
LAWRENCE       CLOUDY    56  54  93 E3        29.45F FOG
MANHATTAN      CLOUDY    55  54  96 SW5       29.45F
OLATHE IND     CLOUDY    56  54  93 CALM      29.46F
OLATHE EXE     CLOUDY    57  55  93 S6        29.45F
SALINA         CLOUDY    56  52  86 NW8       29.46F
TOPEKA BILLARD LGT RAIN  57  56  96 S3        29.46F FOG
TOPEKA FORBES  CLOUDY    58  54  86 SW5       29.45F
$$


USA.gov is the U.S. government's official web portal to all federal, state and local government web resources and services.